[[{"header":{"parameterUnit":"m.s-1","parameterCategory":1,"la1":30.2992,"la2":30.254,"lo1":-89.0895,"lo2":-89.0443,"dy":0.0025,"dx":0.0025,"nx":19,"ny":19,"refTime":"2026-04-26T21:00:00:Z","depth":0,"parameterNumber":2,"parameterNumberName":"U-component_of_WINDS"},"data":[0,0,0,-3.6799,-3.6801,-3.6909,-3.6909,-3.7044,-3.7046,0,0,0,0,0,0,0,0,0,0,0,-3.6766,-3.6767,-3.6798,-3.6801,-3.6909,-3.6909,-3.7044,-3.7046,0,0,0,0,0,0,0,0,0,0,0,-3.6766,-3.6767,-3.6768,-3.6802,-3.6909,-3.6909,-3.7044,-3.6963,0,0,0,0,0,0,0,0,0,0,-3.6859,-3.6828,-3.6766,-3.6768,-3.6802,-3.6908,-3.6909,-3.6959,-3.6968,-3.6995,0,-3.7019,0,-3.7035,-3.7055,-3.7055,0,0,0,-3.6801,-3.6821,-3.6851,-3.6768,-3.6803,-3.6908,-3.686,-3.6964,-3.6974,-3.7007,-3.7021,-3.7026,-3.7037,-3.7056,-3.7056,-3.7213,-3.7214,0,0,-3.6795,-3.6785,-3.6844,-3.6857,-3.6842,-3.6857,-3.6863,-3.6971,-3.6985,-3.7022,-3.703,-3.7039,-3.7056,-3.7057,-3.7213,-3.7214,0,0,0,-3.6778,-3.678,-3.6808,-3.6852,-3.6872,-3.686,-3.6868,-3.698,-3.699,-3.7031,-3.7041,-3.7057,-3.7059,-3.7212,-3.7213,-3.7239,0,0,0,-3.6775,-3.677,-3.6805,-3.68,-3.687,-3.6927,-3.6875,-3.6983,-3.6995,-3.704,-3.7057,-3.706,-3.7211,-3.7212,-3.7236,-3.7252,0,0,0,-3.6759,-3.6769,-3.6784,-3.6799,-3.6845,-3.6926,-3.6942,-3.6986,-3.7001,-3.7055,-3.7061,-3.7211,-3.7212,-3.7234,-3.7248,-3.729,0,0,0,-3.6739,-3.6804,-3.6784,-3.6861,-3.6844,-3.6942,-3.6941,-3.7015,-3.7064,-3.7058,-3.7211,-3.7213,-3.7233,-3.7246,-3.7287,-3.7322,-3.7336,0,0,-3.6815,-3.6813,-3.6859,-3.6845,-3.6944,-3.6926,-3.7029,-3.7084,-3.7098,-3.7174,-3.7178,-3.7237,-3.7248,-3.7289,-3.742,-3.743,0,0,0,-3.688,-3.6913,-3.6941,-3.6989,-3.7034,-3.7073,-3.7114,-3.7135,-3.72,-3.7135,-3.7265,-3.7271,-3.7296,-3.7313,-3.7322,-3.7344,-3.7221,-3.7221,-3.722,-3.6969,-3.6987,-3.7065,-3.7095,-3.7142,-3.7184,-3.7223,-3.7258,-3.726,-3.7291,-3.7312,-3.739,-3.7409,-3.7416,-3.7438,-3.7334,-3.7334,-3.7334,-3.7334,-3.7081,-3.713,-3.7135,-3.7212,-3.7229,-3.7294,-3.7339,-3.7338,-3.74,-3.7374,-3.7397,-3.7364,-3.7427,-3.7448,-3.7336,-3.7336,-3.7335,-3.7335,-3.7335,-3.714,-3.7167,-3.7193,-3.7265,-3.7319,-3.7349,-3.7409,-3.7423,-3.7436,-3.7459,-3.7483,-3.7483,-3.7483,-3.747,-3.7471,-3.7471,-3.7471,-3.7471,-3.7471,-3.719,-3.7219,-3.7269,-3.7325,-3.7358,-3.7404,-3.7451,-3.7484,-3.7524,-3.7529,-3.7529,-3.7528,-3.7431,-3.7406,-3.7476,-3.7475,-3.7474,-3.7474,-3.7474,-3.7294,-3.7274,-3.735,-3.7384,-3.7452,-3.7505,-3.7524,-3.7591,-3.762,-3.765,-3.7645,-3.7572,-3.757,-3.7563,-3.7541,-3.7642,-3.7642,-3.7642,-3.7642,-3.7343,-3.7345,-3.7427,-3.748,-3.7535,-3.756,-3.7646,-3.7684,-3.7719,-3.7739,-3.7727,-3.7701,-3.7693,-3.7695,-3.7685,-3.7666,-3.7796,-3.7796,-3.7796,-3.7407,-3.7415,-3.7485,-3.7521,-3.7576,-3.7622,-3.7704,-3.7765,-3.7801,-3.7802,-3.7754,-3.7748,-3.7706,-3.7692,-3.7688,-3.7672,-3.7636,0,0]},{"header":{"parameterUnit":"m.s-1","parameterCategory":1,"la1":30.2992,"la2":30.254,"lo1":-89.0895,"lo2":-89.0443,"dy":0.0025,"dx":0.0025,"nx":19,"ny":19,"refTime":"2026-04-26T21:00:00:Z","depth":0,"parameterNumber":3,"parameterNumberName":"V-component_of_WINDS"},"data":[0,0,0,3.8695,3.8696,3.8743,3.8743,3.8787,3.8788,0,0,0,0,0,0,0,0,0,0,0,3.8672,3.8672,3.8695,3.8696,3.8743,3.8743,3.8787,3.8788,0,0,0,0,0,0,0,0,0,0,0,3.8672,3.8672,3.8673,3.8696,3.8743,3.8743,3.8787,3.8757,0,0,0,0,0,0,0,0,0,0,3.8714,3.8685,3.8672,3.8673,3.8696,3.8743,3.8743,3.8756,3.8759,3.876,0,3.8759,0,3.8774,3.879,3.879,0,0,0,3.8702,3.8682,3.8703,3.8673,3.8697,3.8743,3.8723,3.8758,3.8761,3.8764,3.876,3.8762,3.8775,3.879,3.879,3.8781,3.878,0,0,3.8699,3.8676,3.8701,3.8705,3.8699,3.8722,3.8725,3.876,3.8754,3.876,3.8763,3.8776,3.879,3.879,3.8781,3.8781,0,0,0,3.8688,3.8673,3.8694,3.8703,3.8713,3.8723,3.8726,3.8752,3.8761,3.8764,3.8776,3.879,3.8791,3.8781,3.8781,3.8745,0,0,0,3.8686,3.8667,3.8693,3.8679,3.8712,3.8733,3.8717,3.8759,3.8763,3.8776,3.879,3.8791,3.8782,3.8781,3.8747,3.8732,0,0,0,3.8672,3.8666,3.867,3.8677,3.8697,3.8733,3.8744,3.876,3.8771,3.879,3.8791,3.8782,3.8781,3.8749,3.8734,3.8724,0,0,0,3.865,3.8634,3.8669,3.8657,3.8697,3.8711,3.8744,3.8756,3.8768,3.8791,3.8782,3.8781,3.8749,3.8736,3.8726,3.8712,3.8704,0,0,3.8617,3.8629,3.8625,3.8657,3.866,3.8706,3.8704,3.8735,3.8756,3.8771,3.8771,3.8746,3.8734,3.8724,3.8666,3.8659,0,0,0,3.8606,3.8603,3.8609,3.8621,3.8647,3.8668,3.8703,3.8715,3.873,3.876,3.874,3.8734,3.8729,3.8723,3.8718,3.8716,3.8777,3.8777,3.8778,3.8526,3.8558,3.8552,3.859,3.8602,3.864,3.8652,3.8675,3.87,3.8695,3.87,3.8661,3.8654,3.865,3.8647,3.8695,3.8694,3.8694,3.8694,3.8482,3.8483,3.8521,3.853,3.8563,3.857,3.8607,3.8625,3.8636,3.8659,3.8656,3.868,3.8642,3.8641,3.8692,3.8692,3.8693,3.8693,3.8693,3.8434,3.844,3.8457,3.8481,3.8495,3.8534,3.8544,3.8573,3.8599,3.8597,3.8606,3.8607,3.8612,3.8599,3.8599,3.8599,3.8599,3.8599,3.8599,3.8377,3.8398,3.8404,3.8433,3.8447,3.8468,3.8508,3.8522,3.8544,3.8564,3.8564,3.8591,3.8632,3.8643,3.8597,3.8597,3.8597,3.8597,3.8598,3.8322,3.834,3.8349,3.8363,3.8401,3.8415,3.8453,3.8478,3.8493,3.8498,3.8526,3.8552,3.8565,3.857,3.8579,3.8519,3.8519,3.8519,3.8519,3.8281,3.8292,3.8311,3.8332,3.8355,3.8392,3.8401,3.8433,3.8468,3.8479,3.8492,3.8506,3.8509,3.8521,3.8527,3.8535,3.8466,3.8466,3.8466,3.825,3.8265,3.8269,3.8307,3.8339,3.8366,3.8377,3.8398,3.8441,3.8465,3.8489,3.8491,3.8514,3.852,3.8543,3.8551,3.8567,0,0]}]]